This is the latest recevied weather packets stored in our database for station/object K7DC. If no packets are shown the sender has not sent any weather packets the latest 10 day(s).
| Time | Temp. | Humidity | Pressure | Rain* | Wind** | Luminosity | Snow |
|---|---|---|---|---|---|---|---|
| 1777580598 | 31.67° C | 16% | 1008.3 hPa | 0 mm | - | 941 W/m² | - |
| 1777580294 | 32.22° C | 16% | 1008.5 hPa | 0 mm | - | 247 W/m² | - |
| 1777579991 | 33.33° C | 15% | 1008.7 hPa | 0 mm | - | 916 W/m² | - |
| 1777579686 | 33.33° C | 16% | 1008.6 hPa | 0 mm | - | 935 W/m² | - |
| 1777579385 | 32.78° C | 16% | 1008.8 hPa | 0 mm | - | 940 W/m² | - |
| 1777579081 | 32.78° C | 16% | 1008.7 hPa | 0 mm | - | 941 W/m² | - |
| 1777578775 | 32.22° C | 14% | 1009 hPa | 0 mm | - | 949 W/m² | - |
| 1777578470 | 32.78° C | 14% | 1009.1 hPa | 0 mm | - | 964 W/m² | - |
| 1777578165 | 32.22° C | 14% | 1009.3 hPa | 0 mm | - | 986 W/m² | - |
| 1777577862 | 32.78° C | 13% | 1009.1 hPa | 0 mm | - | 1025 W/m² | - |
| 1777577558 | 32.22° C | 13% | 1009.3 hPa | 0 mm | - | 1089 W/m² | - |
| 1777577255 | 31.67° C | 13% | 1009.4 hPa | 0 mm | - | 1193 W/m² | - |
| 1777576950 | 32.22° C | 13% | 1009.4 hPa | 0 mm | - | 466 W/m² | - |
| 1777576647 | 32.78° C | 11% | 1009.8 hPa | 0 mm | - | 1151 W/m² | - |
| 1777576341 | 31.67° C | 12% | 1009.9 hPa | 0 mm | - | 855 W/m² | - |
| 1777576038 | 30.56° C | 13% | 1010.1 hPa | 0 mm | - | 922 W/m² | - |
| 1777575734 | 28.89° C | 12% | 1010.1 hPa | 0 mm | - | 1131 W/m² | - |
| 1777575430 | 28.33° C | 13% | 1010 hPa | 0 mm | - | 823 W/m² | - |
| 1777575126 | 28.89° C | 12% | 1010.2 hPa | 0 mm | - | 469 W/m² | - |
| 1777574821 | 29.44° C | 11% | 1010.2 hPa | 0 mm | - | 393 W/m² | - |
| 1777574520 | 28.89° C | 12% | 1010.1 hPa | 0 mm | - | 979 W/m² | - |
| 1777574216 | 28.89° C | 11% | 1010.5 hPa | 0 mm | - | 922 W/m² | - |
| 1777573911 | 28.89° C | 12% | 1010.5 hPa | 0 mm | - | 916 W/m² | - |
| 1777573611 | 28.33° C | 12% | 1010.6 hPa | 0 mm | - | 912 W/m² | - |
| 1777573308 | 28.89° C | 11% | 1010.8 hPa | 0 mm | - | 907 W/m² | - |
* Rain latest hour (hover to see other rain measurements)
** Current wind speed in m/s (hover to see current wind gust speed)